Regional Weather Roundup
Issued by NWS

Home | Current Version | Previous Version | Text Only | Print | Product List | Glossary Off
Versions: 1 2 3 4 5 6 7 8 9 10 11 12 13 14 15 16 17 18 19 20 21 22 23 24 25 26 27 28 29 30 31 32 33 34 35 36 37 38 39 40 41 42 43 44 45 46 47 48 49 50

000
ASUS43 KDTX 192110
RWRMI
MICHIGAN HOURLY REGIONAL WEATHER ROUNDUP
NATIONAL WEATHER SERVICE DETROIT/PONTIAC MI
500 PM EDT SAT AUG 19 2017

NOTE: "FAIR" INDICATES FEW OR NO CLOUDS BELOW 12,000 FEET WITH NO
SIGNIFICANT WEATHER AND/OR OBSTRUCTION TO VISIBILITY.

MIZ047>049-052>055-059>063-066>070-074>076-081>083-192200-
SOUTHEAST LOWER MICHIGAN

CITY           SKY/WX    TMP DP  RH WIND       PRES   REMARKS
ADRIAN         SUNNY     80  56  43 NW7       29.95R
ALMA           MOSUNNY   77  55  46 W5        29.93S
ANN ARBOR      SUNNY     80  55  42 NW9G16    29.93S
BAD AXE        MOSUNNY   75  56  53 W9        29.92S
CARO           SUNNY     77  58  50 W5        29.92S
DETROIT CITY   MOSUNNY   79  55  43 NW9       29.92S
DETROIT        MOSUNNY   81  56  42 NW13      29.93S
FLINT          MOSUNNY   78  58  49 NW10      29.93F
GROSSE ILE     SUNNY     80  56  42 W10G16    29.91S
HILLSDALE      CLOUDY    79  54  41 W6        29.96S
HOWELL         MOSUNNY   77  55  47 W7        29.95S

CITY           SKY/WX    TMP DP  RH WIND       PRES   REMARKS
JACKSON        SUNNY     79  54  41 NW7       29.95S
LAMBERTVILLE   SUNNY     80  57  45 N5        29.93R
LANSING        MOSUNNY   79  55  43 W10       29.95S
LAPEER         FAIR      77  56  48 NW3       29.94S
MASON          PTSUNNY   79  56  44 W6        29.95S
MONROE         SUNNY     80  58  46 N7        29.91S
MT. CLEMENS    MOSUNNY   77  57  50 NW13      29.91S
PONTIAC        MOSUNNY   76  56  49 NW12      29.93S
PORT HOPE        N/A     75  56  51 W8        29.89R
PORT HURON     SUNNY     77  55  47 NW12      29.92S
TRI CITIES     MOSUNNY   78  62  57 W9        29.92S
MIDLAND        FAIR      81  59  47 W10       29.90F
TROY           SUNNY     78  53  41 W8G16     29.95S
SAGINAW HB     MOSUNNY   77  59  53 W8        29.91F
$$
MIZ043>046-050>051-056>058-064>065-071>073-077>080-192200-
SOUTHWEST LOWER MICHIGAN

CITY           SKY/WX    TMP DP  RH WIND       PRES   REMARKS
BATTLE CREEK   SUNNY     80  56  43 NW7       29.97R
BENTON HARBOR  SUNNY     77  57  50 W8        29.97S
BIG RAPIDS     SUNNY     77  53  42 W8        29.93S
COLDWATER      SUNNY     80  51  35 NW3       29.96S
FREMONT        FAIR      78  59  52 W7        29.95R
HOLLAND        SUNNY     75  62  64 W8        29.98R
GRAND RAPIDS   MOSUNNY   78  58  49 W8        29.95R
IONIA          FAIR      80  56  44 SW9       29.94S
KALAMAZOO      SUNNY     82  52  35 NW9       29.96R
LUDINGTON      SUNNY     72  63  72 SW9       29.93S
MARSHALL       SUNNY     80  55  41 W7        29.95S
MOUNT PLEASANT MOSUNNY   81  57  43 NW7       29.91F
MUSKEGON       SUNNY     76  63  64 SW10      29.96S
SOUTH HAVEN    SUNNY     76  60  58 W7        29.98R
$$
MIZ016>042-192200-
NORTHERN LOWER MICHIGAN

CITY           SKY/WX    TMP DP  RH WIND       PRES   REMARKS
ALPENA         PTSUNNY   79  61  53 W8        29.88R
BEAVER ISLAND  SUNNY     72  63  73 SW14      29.88R
BELLAIRE       SUNNY     77  59  54 W8        29.89S
CADILLAC       MOSUNNY   78  56  46 W10       29.93S
CHARLEVOIX     SUNNY     72  63  72 W14       29.92R
FRANKFORT      SUNNY     72  65  79 SW8G17    29.91S
GAYLORD        MOSUNNY   73  55  53 W9        29.91R
GRAYLING       MOSUNNY   77  56  48 W8G16     29.92R
HARBOR SPRINGS SUNNY     72  64  77 W8G18     29.88S
HOUGHTON LAKE  MOSUNNY   77  57  50 W10       29.92S
MANISTEE       SUNNY     77  63  61 SW9       29.91F
OSCODA         CLOUDY    73  59  61 E8        29.89R
PELLSTON       SUNNY     74  62  66 W13       29.87S
ROGERS CITY    MOSUNNY   70  61  73 N7        29.88R
TRAVERSE CITY  MOSUNNY   80  58  46 W13       29.88R
$$
MIZ007>008-015-192200-
EASTERN UPPER MICHIGAN

CITY           SKY/WX    TMP DP  RH WIND       PRES   REMARKS
KINROSS        PTSUNNY   74  61  63 SW5       29.86R
MACKINAC ISLAN SUNNY     69  66  88 SW9G16    29.87S
NEWBERRY       MOSUNNY   75  62  64 NW8       29.84S
S. S. MARIE    SUNNY     76  61  59 SW7       29.84S
MUNISING         N/A     71  64  78 N8        29.86R
$$
MIZ004>006-011>014-085-192200-
CENTRAL UPPER MICHIGAN

CITY           SKY/WX    TMP DP  RH WIND       PRES   REMARKS
MANISTIQUE     LGT RAIN  67  61  81 S5        29.86R
ESCANABA       PTSUNNY   78  65  63 S12       29.83F
MENOMINEE      SUNNY     81  61  50 VRB5      29.87S
SAWYER-GWINN   MOSUNNY   73  61  64 NE7       29.87R
$$
MIZ001>003-009>011-084-192200-
WESTERN UPPER MICHIGAN

CITY           SKY/WX    TMP DP  RH WIND       PRES   REMARKS
IRON MOUNTAIN  MOSUNNY   82  54  37 W8        29.86S
HOUGHTON         N/A    N/A N/A N/A MISG      29.85S
COPPER HARBOR    N/A     66  56  70 N9        29.82S
IRONWOOD       MOSUNNY   78  58  49 NW7       29.89F
$$

ABBREVIATIONS USED IN REMARKS
   TC - TEMPERATURE IN CELSIUS
  WCI - WIND CHILL INDEX
   HX - HEAT INDEX
  VSB - VISIBILITY




USA.gov is the U.S. government's official web portal to all federal, state and local government web resources and services.